Theta_e
291 288 287 290 289 288 287 285 285 288 290 289 289 289 290 289 287 286 286 286 286 286 288 289 289 289 290 291 292 293 295 296 300 299 298 294 292 291 290 291 290 291 293 295
288 285 291 290 289 288 286 284 284 287 289 289 288 288 287 286 286 286 285 286 286 287 287 288 288 288 288 289 290 291 292 293 294 295 294 293 291 289 289 289 288 288 289 290
286 289 291 290 287 286 285 284 284 286 288 288 286 285 284 285 285 286 286 286 286 286 285 286 286 285 286 286 288 289 289 290 290 292 292 290 289 288 286 286 286 286 287 288
288 291 290 288 287 288 283 287 287 287 286 282 285 280 283 284 283 284 284 284 285 285 285 285 285 284 285 285 287 287 287 288 288 288 286 285 284 283 284 285 285 286 286 286
288 288 288 288 289 289 288 289 287 286 284 281 282 280 282 283 281 282 283 284 284 285 285 284 284 284 284 284 284 286 286 286 286 285 285 284 283 284 284 284 285 285 285 285
290 291 290 291 290 290 289 287 285 283 281 277 282 282 281 281 283 283 284 284 284 284 284 284 285 284 283 283 284 285 285 285 285 285 284 284 283 283 283 284 284 284 285 285
286 287 288 290 286 287 286 284 279 277 276 277 281 279 283 285 285 285 284 284 284 284 284 283 283 282 282 282 282 283 284 283 284 284 284 284 283 284 283 283 283 284 284 284
283 282 287 289 288 285 284 285 279 272 273 277 281 278 284 286 286 286 287 286 285 284 284 283 282 282 282 282 282 282 282 282 283 284 284 284 284 284 283 283 283 283 283 283
282 283 286 287 288 289 284 282 285 277 267 274 279 282 285 284 283 284 284 284 283 283 283 283 282 282 282 282 282 282 282 282 282 282 282 283 283 283 283 282 283 283 283 283
287 282 285 285 288 286 285 287 281 279 271 269 277 278 281 281 282 282 283 283 283 283 283 283 282 282 282 282 282 282 282 282 282 282 282 282 282 282 282 282 282 282 282 283
288 285 283 285 284 284 283 282 282 283 280 273 271 277 283 284 284 282 284 284 284 283 283 283 282 282 282 281 281 281 281 281 281 282 282 282 282 282 282 281 281 281 282 281
289 286 278 282 284 285 284 284 284 282 276 276 276 280 285 286 285 285 284 285 285 284 283 283 282 282 281 280 280 281 281 282 282 281 281 281 281 281 280 280 280 281 280 280
290 286 277 281 282 282 283 284 284 283 283 281 276 280 285 284 284 285 285 285 284 283 282 282 281 280 280 280 281 281 280 279 280 280 280 280 279 279 278 278 279 279 278 277
295 288 286 284 284 283 281 282 283 285 282 281 281 279 283 283 283 284 284 285 284 283 282 281 280 280 280 280 279 278 278 278 279 279 278 277 277 277 277 277 276 275 275 274
292 286 287 286 284 282 279 280 282 282 285 283 285 283 284 286 286 286 286 284 283 283 281 281 280 280 279 278 278 277 277 277 277 277 276 275 276 276 275 274 273 273 273 273
291 285 286 283 283 285 284 283 282 283 283 282 282 282 286 285 284 284 284 284 283 282 281 281 280 280 279 279 276 278 276 275 276 275 274 275 274 273 272 272 271 271 270 270
285 282 283 280 277 278 277 280 283 284 283 284 281 286 282 281 283 284 282 283 283 282 280 280 280 280 279 278 279 276 274 275 274 273 273 272 271 270 270 269 269 268 268 268
283 282 280 270 273 271 279 275 278 283 284 282 279 280 284 283 280 281 280 281 280 280 280 279 279 278 278 277 275 274 274 273 272 271 271 270 269 268 267 267 266 266 266 265
281 281 272 272 272 276 278 274 275 279 279 282 283 279 278 277 278 277 279 279 280 280 280 280 280 278 276 274 274 273 272 272 271 270 269 268 267 265 265 263 264 264 264 263
280 281 281 270 271 270 275 273 276 278 271 276 282 278 276 276 275 278 277 278 278 279 279 278 278 276 275 273 272 271 270 269 269 269 268 267 266 262 262 263 262 263 262 263
274 275 276 273 272 274 277 275 275 270 273 273 276 275 275 275 277 278 277 277 278 278 278 277 276 275 273 272 270 269 268 268 268 267 266 265 264 262 261 261 261 260 260 261
274 274 271 271 271 271 276 274 274 277 276 276 275 276 276 277 277 277 277 276 277 277 276 275 274 272 271 270 269 268 267 267 266 265 264 261 258 259 261 257 258 258 258 258
271 276 273 275 275 276 277 277 279 279 277 276 276 277 277 277 276 276 275 275 276 275 275 273 272 270 268 268 267 266 266 265 264 260 255 254 257 259 259 257 258 258 259 258
271 273 271 272 273 275 277 278 279 279 278 279 278 277 277 276 276 276 274 275 275 273 272 270 269 268 267 266 267 265 265 264 256 253 256 258 257 258 258 260 260 259 258 259
273 273 269 269 273 275 277 278 279 279 278 277 276 277 277 276 275 275 275 274 274 273 271 270 270 269 267 265 264 262 262 259 257 256 258 258 258 257 258 260 260 261 262 263
273 271 270 269 275 276 277 280 279 278 278 277 277 275 275 276 276 274 274 275 273 271 269 268 268 267 265 264 263 259 258 257 256 258 259 258 258 258 259 259 259 263 266 268
Wind_Speed
1 4 10 15 10 4 6 5 6 4 2 2 6 6 3 5 7 7 6 6 7 8 6 9 10 11 11 14 15 14 13 11 6 6 6 8 8 8 10 10 14 14 13 14
3 9 10 5 6 4 3 4 6 4 4 4 4 8 3 4 2 3 6 6 7 6 8 9 10 11 12 12 13 14 13 13 11 6 6 6 7 9 9 9 13 14 15 14
9 4 8 8 5 6 5 6 5 7 1 1 1 5 4 3 4 5 4 4 5 6 6 7 10 11 9 12 11 12 12 12 11 9 8 7 6 6 7 9 9 11 14 14
7 4 7 5 5 8 5 8 6 5 4 5 0 6 4 4 3 2 4 5 5 6 5 5 7 9 8 8 7 11 11 12 10 10 13 14 10 9 5 6 6 8 12 12
7 8 5 5 8 7 5 5 6 3 3 2 3 1 5 6 6 7 8 7 6 6 6 6 6 6 5 6 7 9 12 13 10 11 12 11 12 8 5 5 8 9 9 10
4 0 6 8 3 6 9 7 6 4 3 3 8 8 5 8 8 11 8 8 9 7 6 5 4 5 5 5 7 8 12 12 10 11 11 12 12 8 7 7 7 6 5 7
0 5 4 5 6 3 3 6 1 2 1 7 2 4 8 6 7 16 21 16 12 8 7 6 6 5 5 5 6 7 10 10 8 11 10 10 10 9 9 7 6 5 5 5
7 6 11 7 10 9 9 8 7 9 5 3 1 7 7 3 2 6 14 15 12 11 8 7 6 6 6 5 6 7 9 8 7 8 8 7 7 5 5 5 3 3 4 2
7 7 1 3 5 10 7 6 5 8 2 3 5 5 2 3 2 7 13 12 13 10 9 10 8 7 7 6 6 7 8 7 6 6 6 6 5 5 5 6 6 5 4 4
6 2 1 2 3 2 5 9 3 1 3 5 4 5 7 8 10 10 15 17 14 13 11 9 8 8 6 6 6 6 6 7 5 6 5 5 5 5 4 4 4 4 4 6
6 5 1 4 7 10 4 4 2 4 5 7 2 7 5 9 15 20 17 17 16 14 11 10 8 7 6 6 6 6 6 6 5 4 4 4 4 4 4 5 4 5 6 7
8 5 5 8 2 1 1 7 7 6 5 3 2 9 2 5 11 15 17 17 15 15 14 12 9 8 7 7 6 5 5 6 4 4 4 5 4 5 5 4 6 7 9 10
11 4 2 5 1 1 6 6 3 4 4 13 6 7 1 2 7 13 17 15 14 14 11 10 9 9 8 6 6 5 4 5 4 4 5 5 4 5 7 8 9 9 9 10
7 5 11 16 5 6 7 7 7 7 8 6 16 4 6 6 9 9 10 13 13 13 14 12 10 9 8 7 7 6 5 5 5 5 5 6 6 6 5 5 6 7 8 8
6 14 10 4 5 4 5 5 9 15 20 14 17 16 10 14 15 18 17 13 14 14 13 14 13 11 8 7 6 6 6 5 4 5 5 5 4 5 5 5 6 7 7 7
1 3 7 7 4 6 6 9 9 10 7 6 4 9 4 3 6 8 14 15 14 14 15 14 12 11 10 9 8 9 7 6 5 5 5 4 4 4 5 5 7 7 8 9
10 8 7 5 1 5 3 14 18 7 6 9 12 11 6 3 8 13 13 13 15 13 14 14 14 12 9 10 10 9 7 6 5 5 4 4 3 3 5 6 7 9 10 10
5 4 2 4 3 5 3 3 2 12 9 6 2 3 9 6 2 5 5 11 9 10 12 11 10 8 8 7 7 8 7 6 5 4 4 3 3 4 5 6 8 8 9 10
4 4 4 5 4 7 3 5 7 8 9 11 10 5 3 4 4 1 6 6 10 12 10 10 10 7 7 9 8 8 6 5 4 4 3 2 3 3 6 5 8 8 9 10
2 3 2 4 4 9 5 3 3 4 6 8 13 10 9 6 4 6 8 7 7 8 9 10 9 6 9 8 8 8 6 5 5 4 3 2 3 2 4 7 7 6 7 10
4 1 5 5 5 7 5 4 1 7 8 1 6 6 8 6 5 3 9 6 6 7 9 8 8 9 9 9 8 7 6 6 4 4 2 1 1 3 5 5 6 6 7 9
9 9 5 3 2 8 6 6 9 6 1 5 5 7 9 5 5 5 9 9 10 10 8 8 9 8 8 9 8 7 6 5 5 3 2 0 3 4 4 4 5 6 6 7
3 7 8 9 6 1 9 2 6 5 6 7 7 7 8 9 6 7 8 10 11 10 8 7 9 9 7 8 6 7 5 7 5 4 2 2 4 4 4 4 6 5 5 6
4 2 2 4 2 3 10 4 3 5 4 4 2 6 9 9 9 8 5 7 7 8 9 8 10 10 10 8 7 5 8 6 6 4 3 3 4 4 3 4 5 5 6 6
4 8 5 1 3 1 7 10 8 6 2 3 3 7 10 8 6 7 8 7 8 9 7 10 12 11 10 9 7 6 7 7 5 4 3 3 3 3 4 5 5 6 7 8
6 8 6 6 9 7 6 11 9 10 10 10 8 4 4 8 8 7 8 9 8 9 7 9 9 8 9 10 9 7 6 7 6 4 4 3 2 3 3 4 7 10 12 15
Wind_Direction
110 128 209 198 198 138 140 175 199 240 239 169 231 250 30 72 77 84 82 82 74 57 21 27 23 21 28 35 43 42 55 42 65 69 79 70 67 57 52 48 44 45 43 45
81 224 214 134 161 160 150 174 231 281 219 161 260 256 53 48 79 129 126 104 87 78 49 38 30 36 37 43 43 48 54 56 59 72 76 80 89 69 67 55 48 42 43 42
180 204 157 143 146 163 212 186 213 220 3 194 304 264 202 47 102 105 100 115 95 92 83 43 41 34 39 47 47 58 59 59 59 70 92 90 80 73 61 50 54 42 48 47
238 209 138 157 180 170 217 208 173 174 128 231 93 280 235 166 148 157 157 144 129 116 90 71 58 55 41 35 51 67 70 72 67 76 81 80 85 88 70 68 65 56 49 51
231 165 168 172 200 148 241 144 172 142 163 118 210 214 246 137 200 198 196 177 165 152 141 123 99 83 50 35 48 66 72 66 61 74 83 88 87 84 79 66 65 56 55 52
235 1 161 191 126 158 148 85 53 51 88 259 209 179 243 192 189 177 186 188 176 169 157 128 98 89 76 42 55 69 79 73 67 75 79 90 96 94 82 64 61 47 47 42
250 212 193 141 98 68 127 120 87 332 300 234 109 166 250 195 176 173 177 184 180 171 163 155 145 136 117 106 93 91 92 84 81 88 88 90 95 92 86 77 69 59 44 41
169 268 164 189 168 173 193 161 163 200 202 232 64 233 255 108 121 157 177 173 167 171 169 163 162 156 141 131 120 115 108 103 93 91 91 87 88 93 96 101 96 80 63 59
167 269 175 147 151 141 180 199 160 109 75 39 221 278 268 131 105 165 168 165 176 175 174 173 167 168 160 153 146 130 120 113 114 117 114 108 101 89 81 64 50 33 17 8
211 192 270 159 106 32 172 156 117 1 151 250 265 263 237 207 192 169 177 182 182 183 177 174 177 174 166 153 148 138 132 134 134 103 86 84 80 68 62 67 44 16 14 8
150 139 300 126 216 177 153 181 75 131 153 172 222 255 227 203 181 185 187 183 182 182 178 178 181 174 167 151 162 153 140 126 119 111 101 88 68 59 51 48 31 17 6 0
194 134 169 204 274 333 163 194 169 179 206 242 166 250 264 245 185 176 180 182 180 180 179 179 169 173 175 170 162 157 147 137 114 93 91 79 66 57 53 34 20 18 8 0
175 192 95 324 174 316 211 196 158 99 82 214 174 251 45 20 166 175 176 182 180 176 169 165 162 179 182 172 164 158 118 98 84 90 98 95 80 55 34 22 15 11 2 351
144 158 204 221 181 135 181 189 181 181 216 200 231 184 223 196 193 183 179 183 180 178 174 173 172 179 175 176 161 141 106 94 108 111 98 74 53 47 38 24 11 1 352 343
165 210 199 171 144 124 184 162 179 205 224 214 248 222 191 195 194 195 189 175 171 178 176 180 177 180 176 165 139 117 123 135 138 115 94 77 65 51 33 16 5 349 343 338
233 276 168 191 153 187 223 206 193 210 231 266 148 263 186 131 105 155 181 173 177 183 185 181 177 175 175 162 155 154 154 149 123 104 88 83 67 32 15 1 349 342 335 332
183 151 169 200 44 115 268 232 209 195 185 176 220 239 153 191 194 188 174 172 181 183 179 179 178 173 168 160 157 161 151 125 111 102 95 96 64 24 9 354 342 339 334 329
147 116 45 125 165 213 240 84 42 221 236 185 56 193 187 194 133 133 145 174 170 170 172 171 162 152 139 137 134 132 126 120 119 122 123 79 40 18 356 345 335 329 325 321
353 134 127 154 216 327 215 194 160 163 252 193 199 198 198 99 75 292 195 180 180 179 165 156 155 144 137 144 136 125 126 135 148 149 127 80 38 4 346 325 321 321 315 314
20 17 186 136 191 212 258 239 174 122 287 212 198 174 163 141 164 227 178 170 144 141 148 147 139 123 135 138 135 138 149 159 173 154 104 49 25 348 310 310 311 307 302 303
135 126 207 184 211 279 211 165 164 115 241 135 154 144 147 185 193 235 135 144 147 147 146 127 136 155 154 143 142 154 161 185 150 121 95 70 348 311 296 292 303 297 298 303
162 162 195 128 173 260 144 69 162 201 41 156 158 175 176 138 166 158 167 152 156 156 140 145 147 155 150 150 154 163 181 148 136 142 152 279 311 304 302 287 291 287 291 291
244 183 179 191 205 132 195 162 199 180 154 188 167 181 173 167 182 173 182 172 175 164 161 157 159 151 157 163 164 166 167 149 147 134 185 261 282 274 272 273 289 293 281 282
254 153 169 94 237 227 205 236 247 199 210 159 140 156 158 176 185 188 164 169 169 165 174 156 154 173 180 174 171 156 150 143 136 168 223 254 249 282 280 295 285 272 277 283
185 132 146 298 276 325 258 230 217 221 178 118 117 175 199 187 180 175 191 190 189 178 162 171 184 187 185 169 168 162 155 147 161 183 232 245 249 265 288 280 277 271 269 268
178 161 170 208 199 181 217 210 182 200 208 204 195 210 223 181 202 179 201 199 179 181 168 183 190 179 174 171 170 166 159 159 160 195 219 222 268 263 282 295 303 307 305 311